Glens Falls, NY

11:33 PM EDT on October 20, 2019 (GMT -0400)
Bennett Memorial

Weather History for KGFL - August, 2019

Change the Weather History Date:

Tuesday, August 6, 2019

  Actual Average Record
Temperature  
Mean Temperature 68 °F 68 °F  
Max Temperature 85 °F 80 °F 94 °F (1918)
Min Temperature 50 °F 57 °F 44 °F (1951)
Degree Days  
Heating Degree Days 0 1  
Month to date heating degree days 1 6  
Since 1 June heating degree days 71 117  
Since 1 July heating degree days 1 27  
Cooling Degree Days 3 4  
Month to date cooling degree days 14 24  
Year to date cooling degree days 310 244  
Since 1 June cooling degree days 301 232  
Growing Degree Days 18 (Base 50)    
Moisture  
Dew Point 57 °F    
Average Humidity 76    
Maximum Humidity 100    
Minimum Humidity 51    
Precipitation  
Precipitation T in 0.13 in 3.10 in (1990)
Month to date precipitation T 0.80  
Year to date precipitation 25.94 22.93  
Sea Level Pressure  
Sea Level Pressure 29.87 in    
Wind  
Wind Speed 6 mph (South)    
Max Wind Speed 18 mph    
Max Gust Speed 26 mph    
Visibility 6 miles    
Events Fog , Rain    
T = Trace of Precipitation, MM = Missing Value Source: NWS Daily Summary

Daily Weather History Graph

Daily Weather History Graph

Search for Another Location

Airport or City:

Astronomy

Aug. 06, 2019 Rise Set
Actual Time 5:49 AM EDT 8:10 PM EDT
Civil Twilight 5:17 AM EDT 8:42 PM EDT
Nautical Twilight 4:37 AM EDT 9:21 PM EDT
Astronomical Twilight 3:53 AM EDT 10:05 PM EDT
Moon 12:22 PM EDT (8/6) 11:42 PM EDT (8/6)
Length of Visible Light 15h 24m
Length of Day
14h 20m
Waxing Crescent, 38% of the Moon is Illuminated
Aug 6
Waxing Crescent
Aug 7
First Quarter
Aug 15
Full
Aug 23
Last Quarter
Aug 30
New

Hourly Weather History & Observations

Time (EDT) Temp. Heat Index Dew Point Humidity Pressure Visibility Wind Dir Wind Speed Gust Speed Precip Events Conditions
12:53 AM 57.0 °F - 55.0 °F 93% 29.93 in 10.0 mi Calm Calm - N/A   Clear
1:18 AM 54.0 °F - 52.0 °F 93% 29.93 in 0.8 mi Calm Calm - N/A   Clear
1:49 AM 53.6 °F - 53.6 °F 100% 29.92 in 2.0 mi Calm Calm - N/A   Clear
1:53 AM 53.1 °F - 53.1 °F 100% 29.91 in 7.0 mi Calm Calm - N/A   Clear
1:57 AM 53.1 °F - 52.0 °F 96% 29.92 in 1.5 mi Calm Calm - N/A   Clear
2:12 AM 54.0 °F - 52.0 °F 93% 29.91 in 9.0 mi Calm Calm - N/A   Clear
2:22 AM 53.1 °F - 51.1 °F 93% 29.91 in 2.0 mi Calm Calm - N/A   Clear
2:31 AM 53.1 °F - 51.1 °F 93% 29.91 in 10.0 mi Calm Calm - N/A   Clear
2:50 AM 53.6 °F - 51.8 °F 94% 29.92 in 1.8 mi Calm Calm - N/A   Clear
2:53 AM 53.1 °F - 52.0 °F 96% 29.92 in 1.2 mi Calm Calm - N/A   Clear
3:01 AM 52.0 °F - 52.0 °F 100% 29.92 in 4.0 mi Calm Calm - N/A   Clear
3:13 AM 51.1 °F - 50.0 °F 96% 29.91 in 1.8 mi Calm Calm - N/A   Clear
3:23 AM 52.0 °F - 51.1 °F 97% 29.91 in 0.8 mi Calm Calm - N/A   Clear
3:43 AM 52.0 °F - 51.1 °F 97% 29.90 in 3.0 mi Calm Calm - N/A   Clear
3:53 AM 51.1 °F - 50.0 °F 96% 29.90 in 1.8 mi Calm Calm - N/A   Clear
4:20 AM 51.1 °F - 50.0 °F 96% 29.91 in 0.8 mi Calm Calm - N/A   Clear
4:32 AM 51.1 °F - 50.0 °F 96% 29.90 in 2.0 mi Calm Calm - N/A   Clear
4:42 AM 52.0 °F - 51.1 °F 97% 29.90 in 0.8 mi Calm Calm - N/A   Clear
4:53 AM 52.0 °F - 51.1 °F 97% 29.91 in 0.8 mi Calm Calm - N/A   Clear
5:15 AM 51.1 °F - 50.0 °F 96% 29.90 in 2.5 mi Calm Calm - N/A   Clear
5:22 AM 52.0 °F - 51.1 °F 97% 29.90 in 10.0 mi Calm Calm - N/A   Clear
5:36 AM 51.1 °F - 51.1 °F 100% 29.90 in 1.8 mi Calm Calm - N/A   Clear
5:53 AM 51.1 °F - 50.0 °F 96% 29.91 in 0.5 mi Calm Calm - N/A Fog Fog
6:14 AM 51.1 °F - 50.0 °F 96% 29.91 in 2.0 mi Calm Calm - N/A   Clear
6:53 AM 54.0 °F - 53.1 °F 97% 29.91 in 10.0 mi Calm Calm - N/A   Clear
7:53 AM 62.1 °F - 57.0 °F 84% 29.90 in 10.0 mi Calm Calm - N/A   Clear
8:53 AM 66.9 °F - 59.0 °F 76% 29.91 in 10.0 mi Calm Calm - N/A   Clear
9:53 AM 73.0 °F - 61.0 °F 66% 29.88 in 10.0 mi Variable 3.5 mph - N/A   Partly Cloudy
10:53 AM 75.0 °F - 61.0 °F 62% 29.87 in 10.0 mi SSE 6.9 mph - N/A   Clear
11:53 AM 78.1 °F - 63.0 °F 60% 29.85 in 10.0 mi South 11.5 mph - N/A   Clear
12:53 PM 82.0 °F 83.4 °F 64.0 °F 54% 29.82 in 10.0 mi SSE 10.4 mph - N/A   Clear
1:53 PM 82.9 °F 84.6 °F 64.9 °F 54% 29.80 in 10.0 mi SE 11.5 mph - N/A   Clear
2:53 PM 82.9 °F 84.6 °F 64.9 °F 54% 29.78 in 10.0 mi South 10.4 mph - N/A   Scattered Clouds
3:53 PM 84.9 °F 86.6 °F 64.9 °F 51% 29.75 in 10.0 mi South 12.7 mph 23.0 mph N/A   Partly Cloudy
4:53 PM 82.0 °F 83.8 °F 64.9 °F 56% 29.77 in 10.0 mi South 12.7 mph - N/A   Clear
5:53 PM 79.0 °F - 66.0 °F 64% 29.77 in 10.0 mi SSW 11.5 mph 20.7 mph N/A   Partly Cloudy
6:53 PM 75.9 °F - 64.0 °F 67% 29.79 in 10.0 mi SSW 10.4 mph - N/A   Clear
7:53 PM 73.9 °F - 66.0 °F 76% 29.79 in 10.0 mi South 8.1 mph 17.3 mph N/A   Partly Cloudy
8:53 PM 72.0 °F - 66.9 °F 84% 29.78 in 10.0 mi South 10.4 mph - 0.00 in Rain Light Rain
9:53 PM 71.1 °F - 64.9 °F 81% 29.80 in 10.0 mi South 4.6 mph - 0.00 in   Clear
10:35 PM 70.0 °F - 64.0 °F 81% 29.80 in 10.0 mi SSW 4.6 mph - N/A   Mostly Cloudy
10:53 PM 70.0 °F - 64.9 °F 84% 29.80 in 10.0 mi South 4.6 mph - N/A   Overcast
11:53 PM 69.1 °F - 64.0 °F 84% 29.79 in 10.0 mi Calm Calm - N/A   Mostly Cloudy